EW8748 Weather Reports


Display with metric or nautical units.
time (UTC)temp
F
wind
direction
speed
MPH
gust
MPH
rain 1hr
in
rain 24hr
in
rain mn
in
humidity
%
barometer
mb
20260831014024 79 267 3.0 7.0 0.00 0.00 0.00 59 1013.6
20260831013513 78 285 5.0 10.0 0.00 0.00 0.00 59 1013.7
20260831013023 79 276 3.0 8.0 0.00 0.00 0.00 62 1013.8
20260831012514 79 289 5.0 8.0 0.00 0.00 0.00 62 1013.9
20260831010513 79 314 5.0 10.0 0.00 0.00 0.00 65 1014.2
20260831003022 78 337 6.0 12.0 0.00 0.00 0.00 64 1014.3
20260831002023 78 295 6.0 10.0 0.00 0.00 0.00 62 1014.2
20260831001513 78 271 7.0 13.0 0.00 0.00 0.00 62 1014.3
20260831000513 79 287 9.0 14.0 0.00 0.00 0.00 62 1014.4
20260831000013 78 318 9.0 15.0 0.00 0.00 0.00 61 1014.3
20260830235023 79 284 9.0 15.0 0.00 0.00 0.00 60 1014.2
20260830234513 79 283 9.0 13.0 0.00 0.00 0.00 60 1014.2
20260830232515 79 285 10.0 20.0 0.00 0.00 0.00 60 1014.6
20260830231513 79 309 10.0 16.0 0.00 0.00 0.00 60 1014.8
20260830231022 79 245 11.0 16.0 0.00 0.00 0.00 60 1014.8
20260830230512 79 297 10.0 18.0 0.00 0.00 0.00 59 1014.8
20260830230013 79 278 9.0 15.0 0.00 0.00 0.00 59 1014.8
20260830221514 80 287 5.0 10.0 0.00 0.00 0.00 56 1014.5
20260830221024 80 310 5.0 10.0 0.00 0.00 0.00 56 1014.4
20260830220512 80 275 5.0 8.0 0.00 0.00 0.00 55 1014.5
20260830214513 81 278 5.0 9.0 0.00 0.00 0.00 54 1014.4
20260830213513 81 283 5.0 12.0 0.00 0.00 0.00 53 1014.4
20260830211513 81 267 3.0 7.0 0.00 0.00 0.00 53 1014.4
20260830210513 81 279 5.0 9.0 0.00 0.00 0.00 52 1014.3
20260830210012 82 267 4.0 10.0 0.00 0.00 0.00 52 1014.3
20260830205512 82 242 6.0 10.0 0.00 0.00 0.00 52 1014.3
20260830204512 82 283 6.0 9.0 0.00 0.00 0.00 52 1014.2
20260830203023 82 270 3.0 8.0 0.00 0.00 0.00 51 1014.2
20260830202513 82 273 2.0 8.0 0.00 0.00 0.00 51 1014.2
20260830201513 83 308 4.0 9.0 0.00 0.00 0.00 51 1014.2
20260830195513 83 285 4.0 8.0 0.00 0.00 0.00 51 1014.2
20260830195022 83 285 5.0 9.0 0.00 0.00 0.00 50 1014.2
20260830194023 84 287 4.0 8.0 0.00 0.00 0.00 50 1014.1
20260830193022 84 350 4.0 9.0 0.00 0.00 0.00 50 1014.1
20260830192512 84 295 4.0 9.0 0.00 0.00 0.00 50 1014.0
20260830192022 84 249 6.0 10.0 0.00 0.00 0.00 50 1014.0
20260830191022 84 268 4.0 9.0 0.00 0.00 0.00 50 1014.0
20260830190512 85 285 6.0 10.0 0.00 0.00 0.00 50 1014.0
20260830190014 85 321 6.0 12.0 0.00 0.00 0.00 50 1013.9
20260830185512 85 269 5.0 12.0 0.00 0.00 0.00 49 1013.8
20260830185022 85 268 5.0 9.0 0.00 0.00 0.00 49 1013.8
20260830184512 85 289 4.0 10.0 0.00 0.00 0.00 49 1013.6
20260830184022 85 260 6.0 10.0 0.00 0.00 0.00 49 1013.6
20260830183513 85 272 4.0 10.0 0.00 0.00 0.00 49 1013.6
20260830183022 85 298 5.0 12.0 0.00 0.00 0.00 49 1013.5
20260830182022 85 274 6.0 12.0 0.00 0.00 0.00 49 1013.4
20260830181024 86 293 7.0 12.0 0.00 0.00 0.00 48 1013.4
20260830175514 86 291 7.0 14.0 0.00 0.00 0.00 47 1013.2
20260830174032 87 241 7.0 14.0 0.00 0.00 0.00 45 1013.2
20260830172517 88 249 8.0 12.0 0.00 0.00 0.00 44 1013.1
20260830172032 88 276 6.0 12.0 0.00 0.00 0.00 43 1013.1
20260830171514 88 354 8.0 15.0 0.00 0.00 0.00 43 1013.1
20260830171035 88 285 7.0 13.0 0.00 0.00 0.00 43 1013.0
20260830170512 88 265 9.0 15.0 0.00 0.00 0.00 43 1013.1
20260830164516 89 253 9.0 18.0 0.00 0.00 0.00 42 1013.1
20260830164032 89 272 10.0 20.0 0.00 0.00 0.00 43 1013.1
20260830163033 90 259 9.0 16.0 0.00 0.00 0.00 42 1013.1
20260830161036 91 14 9.0 17.0 0.00 0.00 0.00 43 1013.1
20260830160015 91 263 10.0 17.0 0.00 0.00 0.00 43 1013.1
20260830154031 92 249 9.0 20.0 0.00 0.00 0.00 44 1012.9
20260830153036 93 252 9.0 18.0 0.00 0.00 0.00 42 1012.9
20260830152035 93 224 10.0 25.0 0.00 0.00 0.00 42 1013.0
20260830151035 92 271 14.0 23.0 0.00 0.00 0.00 43 1013.0
20260830145517 93 239 12.0 20.0 0.00 0.00 0.00 43 1013.0
20260830144515 94 267 10.0 20.0 0.00 0.00 0.00 42 1013.0
20260830143516 94 236 10.0 18.0 0.00 0.00 0.00 42 1013.1
20260830143036 94 262 10.0 22.0 0.00 0.00 0.00 42 1013.1
20260830142514 94 261 12.0 20.0 0.00 0.00 0.00 42 1013.2
20260830142035 94 264 10.0 21.0 0.00 0.00 0.00 43 1013.1
20260830141516 94 256 10.0 18.0 0.00 0.00 0.00 42 1013.3
20260830133514 97 268 12.0 20.0 0.00 0.00 0.00 35 1013.5
20260830130519 99 245 13.0 22.0 0.00 0.00 0.00 27 1013.7
20260830125514 99 305 8.0 15.0 0.00 0.00 0.00 28 1013.8
20260830125030 100 276 12.0 18.0 0.00 0.00 0.00 26 1013.9
20260830123031 99 253 8.0 20.0 0.00 0.00 0.00 26 1014.2
20260830122513 99 239 13.0 21.0 0.00 0.00 0.00 26 1014.2
20260830121030 99 253 11.0 17.0 0.00 0.00 0.00 25 1014.3
20260830120012 99 297 9.0 16.0 0.00 0.00 0.00 24 1014.4
20260830115515 99 289 9.0 17.0 0.00 0.00 0.00 24 1014.4
20260830115031 98 232 8.0 18.0 0.00 0.00 0.00 26 1014.4
20260830114514 99 262 13.0 20.0 0.00 0.00 0.00 24 1014.5
20260830114032 99 341 10.0 15.0 0.00 0.00 0.00 24 1014.5
20260830113515 99 230 12.0 16.0 0.00 0.00 0.00 25 1014.5
20260830113031 99 240 5.0 17.0 0.00 0.00 0.00 24 1014.5
20260830112512 98 246 7.0 16.0 0.00 0.00 0.00 26 1014.7
20260830112031 98 217 8.0 16.0 0.00 0.00 0.00 27 1014.5
20260830110514 98 187 11.0 17.0 0.00 0.00 0.00 24 1014.7
20260830110016 98 173 9.0 15.0 0.00 0.00 0.00 24 1014.7
20260830105513 97 267 7.0 14.0 0.00 0.00 0.00 26 1014.7
20260830104512 97 199 8.0 15.0 0.00 0.00 0.00 26 1014.8
20260830101514 96 339 7.0 16.0 0.00 0.00 0.00 27 1014.9
20260830101030 96 261 9.0 16.0 0.00 0.00 0.00 27 1014.9
20260830100515 96 248 10.0 17.0 0.00 0.00 0.00 27 1015.0
20260830100013 96 235 9.0 16.0 0.00 0.00 0.00 27 1015.1
20260830095513 96 271 8.0 14.0 0.00 0.00 0.00 27 1015.1
20260830095030 96 249 8.0 15.0 0.00 0.00 0.00 27 1015.1
20260830094512 95 260 9.0 16.0 0.00 0.00 0.00 28 1015.2
20260830094031 95 258 10.0 17.0 0.00 0.00 0.00 28 1015.2
20260830092512 94 238 8.0 14.0 0.00 0.00 0.00 29 1015.3
20260830091513 95 275 7.0 12.0 0.00 0.00 0.00 29 1015.4
20260830085030 94 258 9.0 15.0 0.00 0.00 0.00 28 1015.3
20260830084512 94 278 7.0 14.0 0.00 0.00 0.00 28 1015.3
20260830084030 93 307 6.0 12.0 0.00 0.00 0.00 28 1015.3
20260830082030 93 245 6.0 14.0 0.00 0.00 0.00 28 1015.3
20260830080514 92 271 5.0 10.0 0.00 0.00 0.00 29 1015.2
20260830073513 90 253 2.0 3.0 0.00 0.00 0.00 35 1015.0
20260830072512 89 270 2.0 3.0 0.00 0.00 0.00 36 1015.0
20260830070513 88 310 1.0 2.0 0.00 0.00 0.00 37 1014.8
20260830065512 88 328 2.0 3.0 0.00 0.00 0.00 37 1014.8
20260830065036 87 294 1.0 3.0 0.00 0.00 0.00 37 1014.7
20260830064512 87 305 1.0 3.0 0.00 0.00 0.00 37 1014.7
20260830064031 87 301 1.0 3.0 0.00 0.00 0.00 37 1014.7
20260830063512 86 305 1.0 3.0 0.00 0.00 0.00 37 1014.7
20260830062029 86 278 0.0 2.0 0.00 0.00 0.00 36 1014.7
20260830061512 86 278 0.0 2.0 0.00 0.00 0.00 36 1014.8
20260830060013 85 354 1.0 2.0 0.00 0.00 0.00 38 1014.8
20260830055512 84 290 0.0 2.0 0.00 0.00 0.00 39 1014.8
20260830055031 84 290 1.0 3.0 0.00 0.00 0.00 39 1014.9
20260830054512 83 315 1.0 3.0 0.00 0.00 0.00 40 1014.9
20260830053030 83 295 3.0 6.0 0.00 0.00 0.00 41 1014.7
20260830052515 83 279 3.0 5.0 0.00 0.00 0.00 41 1014.7
20260830051515 82 318 0.0 3.0 0.00 0.00 0.00 42 1014.7
20260830050514 83 308 2.0 3.0 0.00 0.00 0.00 42 1014.7
20260830045031 82 273 2.0 6.0 0.00 0.00 0.00 42 1014.5
20260830044030 82 278 3.0 5.0 0.00 0.00 0.00 43 1014.6
20260830042513 82 287 3.0 6.0 0.00 0.00 0.00 44 1014.6
20260830042030 82 278 3.0 6.0 0.00 0.00 0.00 44 1014.5
20260830040011 81 284 6.0 8.0 0.00 0.00 0.00 46 1014.6
20260830035513 81 268 5.0 8.0 0.00 0.00 0.00 46 1014.6
20260830035021 82 299 5.0 10.0 0.00 0.00 0.00 45 1014.6
20260830033511 82 304 6.0 10.0 0.00 0.00 0.00 44 1014.6
20260830032511 82 324 5.0 9.0 0.00 0.00 0.00 44 1014.7
20260830031513 82 11 5.0 9.0 0.00 0.00 0.00 44 1014.7
20260830030011 81 307 5.0 8.0 0.00 0.00 0.00 43 1014.7
20260830025511 82 293 5.0 7.0 0.00 0.00 0.00 43 1014.7
20260830025022 82 280 5.0 8.0 0.00 0.00 0.00 43 1014.8
20260830024511 82 287 5.0 8.0 0.00 0.00 0.00 43 1014.8
20260830024021 82 268 5.0 9.0 0.00 0.00 0.00 43 1014.8
20260830023020 81 295 5.0 8.0 0.00 0.00 0.00 45 1014.9
20260830022511 81 274 5.0 9.0 0.00 0.00 0.00 45 1015.0
20260830022021 81 258 5.0 9.0 0.00 0.00 0.00 46 1015.1
20260830021511 81 220 4.0 8.0 0.00 0.00 0.00 46 1015.1
20260830021021 80 295 6.0 10.0 0.00 0.00 0.00 46 1015.1
20260830015511 80 294 4.0 9.0 0.00 0.00 0.00 46 1015.2
20260830015021 80 276 6.0 9.0 0.00 0.00 0.00 46 1015.3
20260830014511 81 252 7.0 10.0 0.00 0.00 0.00 46 1015.3